{"data":{"norad_id":52202,"epoch":"2026-09-20T22:36:01.628928Z","epoch_age_seconds":82695,"freshness":"FRESH","line1":"1 52202U 22036A   26263.94168552 -.00000064  00000+0  81427-5 0  9990","line2":"2 52202  67.1511 355.9647 0004991 275.5012  84.5504 13.96674185227320","mean_motion":13.96674185,"eccentricity":0.0004991,"inclination_deg":67.1511,"raan_deg":355.9647,"arg_perigee_deg":275.5012,"mean_anomaly_deg":84.5504,"bstar":8.1427e-6,"rev_number":22732,"period_min":103.10207029423,"perigee_km":901.6995220502,"apogee_km":908.96988350391,"semimajor_km":7283.4717027771,"source":"CELESTRAK","updated_at":"2026-09-21T09:00:08.515755Z"}}